FW9690 Weather Reports


Display with metric or nautical units.
time (UTC)temp
F
wind
direction
speed
MPH
gust
MPH
rain 1hr
in
rain 24hr
in
rain mn
in
humidity
%
barometer
mb
20210614180002 92 181 0.0 0.0 0.00 0.00 0.00 27 993.2
20210614174651 91 159 0.0 0.0 0.00 0.00 0.00 28 993.2
20210614173131 91 175 0.0 0.0 0.00 0.00 0.00 29 993.3
20210614171633 90 132 0.0 0.0 0.00 0.00 0.00 31 993.7
20210614170058 89 165 0.0 0.0 0.00 0.00 0.00 32 993.6
20210614164626 88 171 0.0 0.0 0.00 0.00 0.00 34 993.6
20210614163116 86 137 0.0 0.0 0.00 0.00 0.00 36 993.7
20210614161542 85 160 0.0 0.0 0.00 0.00 0.00 37 994.0
20210614154632 83 142 0.0 0.0 0.00 0.00 0.00 41 994.1
20210614153155 81 121 0.0 0.0 0.00 0.00 0.00 44 994.0
20210614151616 81 123 0.0 0.0 0.00 0.00 0.00 44 994.0
20210614144708 79 140 0.0 0.0 0.00 0.00 0.00 46 993.9
20210614143059 78 127 0.0 0.0 0.00 0.00 0.00 45 993.9
20210614141555 78 107 0.0 0.0 0.00 0.00 0.00 45 994.0
20210614140132 78 115 0.0 0.0 0.00 0.00 0.00 45 994.0
20210614134726 77 104 0.0 0.0 0.00 0.00 0.00 44 994.0
20210614133139 76 113 0.0 0.0 0.00 0.00 0.00 45 993.7
20210614131703 75 114 0.0 0.0 0.00 0.00 0.00 47 993.6
20210614130225 76 114 0.0 0.0 0.00 0.00 0.00 46 993.2
20210614124641 74 114 0.0 0.0 0.00 0.00 0.00 48 993.2
20210614123023 72 114 0.0 0.0 0.00 0.00 0.00 49 993.0
20210614121521 71 120 0.0 0.0 0.00 0.00 0.00 49 992.7
20210614120022 71 120 0.0 0.0 0.00 0.00 0.00 49 992.5
20210614114512 72 127 0.0 0.0 0.00 0.00 0.00 47 992.4
20210614113017 71 133 0.0 0.0 0.00 0.00 0.00 47 992.2
20210614111509 72 136 0.0 0.0 0.00 0.00 0.00 46 992.1
20210614110013 73 136 0.0 0.0 0.00 0.00 0.00 46 992.2
20210614104530 73 137 0.0 0.0 0.00 0.00 0.00 45 992.2
20210614103015 73 139 0.0 0.0 0.00 0.00 0.00 45 991.9
20210614101647 74 139 0.0 0.0 0.00 0.00 0.00 45 992.1
20210614100203 74 152 0.0 0.0 0.00 0.00 0.00 44 991.3
20210614094711 74 109 0.0 0.0 0.00 0.00 0.00 43 992.2
20210614093152 74 115 0.0 0.0 0.00 0.00 0.00 43 992.2
20210614091627 74 117 0.0 0.0 0.00 0.00 0.00 42 992.1
20210614090330 74 119 0.0 0.0 0.00 0.00 0.00 41 992.0
20210614084653 76 129 0.0 0.0 0.00 0.00 0.00 39 992.1
20210614083218 77 132 0.0 0.0 0.00 0.00 0.00 39 992.0
20210614081711 76 132 0.0 0.0 0.00 0.00 0.00 39 991.8
20210614080123 77 131 0.0 0.0 0.00 0.00 0.00 39 991.7
20210614074716 76 130 0.0 0.0 0.00 0.00 0.00 39 991.7
20210614073132 77 130 0.0 0.0 0.00 0.00 0.00 38 991.8
20210614071617 77 130 0.0 0.0 0.00 0.00 0.00 38 991.7
20210614070102 77 130 0.0 0.0 0.00 0.00 0.00 37 991.7
20210614064634 77 127 0.0 0.0 0.00 0.00 0.00 37 991.7
20210614063137 77 126 0.0 0.0 0.00 0.00 0.00 38 991.7
20210614061616 79 129 0.0 0.0 0.00 0.00 0.00 35 991.7
20210614060057 80 169 0.0 0.0 0.00 0.00 0.00 35 991.7
20210614054708 81 185 0.0 0.0 0.00 0.00 0.00 33 991.4
20210614053053 82 177 0.0 0.0 0.00 0.00 0.00 32 991.3
20210614051555 83 185 0.0 0.0 0.00 0.00 0.00 31 991.3
20210614050102 83 183 0.0 0.0 0.00 0.00 0.00 31 991.3
20210614044558 85 169 0.0 0.0 0.00 0.00 0.00 29 991.4
20210614043200 85 167 0.0 0.0 0.00 0.00 0.00 29 991.2
20210614041554 85 167 0.0 0.0 0.00 0.00 0.00 29 991.0
20210614040133 86 155 0.0 0.0 0.00 0.00 0.00 29 990.9
20210614034638 86 146 0.0 0.0 0.00 0.00 0.00 28 990.6
20210614033134 87 135 0.0 0.0 0.00 0.00 0.00 27 990.3
20210614031721 86 128 0.0 0.0 0.00 0.00 0.00 28 990.3
20210614030057 87 137 0.0 0.0 0.00 0.00 0.00 27 990.3
20210614024601 88 143 0.0 0.0 0.00 0.00 0.00 27 990.3
20210614023114 89 149 0.0 0.0 0.00 0.00 0.00 26 990.3
20210614021747 90 149 0.0 0.0 0.00 0.00 0.00 25 990.3
20210614020050 91 154 0.0 0.0 0.00 0.00 0.00 25 990.1
20210614014653 93 150 0.0 0.0 0.00 0.00 0.00 24 990.1
20210614013055 94 147 0.0 0.0 0.00 0.00 0.00 23 990.0
20210614011617 94 144 0.0 0.0 0.00 0.00 0.00 21 989.8
20210614010057 95 161 0.0 0.0 0.00 0.00 0.00 21 989.7
20210614004546 95 155 0.0 0.0 0.00 0.00 0.00 21 989.6
20210614003115 95 166 0.0 0.0 0.00 0.00 0.00 21 989.6
20210614001634 96 175 0.0 0.0 0.00 0.00 0.00 20 989.5
20210614000116 96 119 0.0 0.0 0.00 0.00 0.00 20 989.6
20210613234603 96 133 0.0 0.0 0.00 0.00 0.00 20 989.6
20210613233030 96 127 0.0 0.0 0.00 0.00 0.00 20 989.7
20210613231612 96 144 0.0 0.0 0.00 0.00 0.00 20 989.9
20210613230029 96 161 0.0 0.0 0.00 0.00 0.00 20 989.9
20210613224546 96 148 0.0 0.0 0.00 0.00 0.00 21 990.0
20210613223030 96 124 0.0 0.0 0.00 0.00 0.00 21 990.2
20210613221533 97 160 0.0 0.0 0.00 0.00 0.00 20 990.3
20210613220057 97 146 0.0 0.0 0.00 0.00 0.00 19 990.3
20210613214607 96 205 0.0 0.0 0.00 0.00 0.00 19 990.6
20210613213043 97 148 0.0 0.0 0.00 0.00 0.00 18 990.8
20210613211521 97 124 0.0 0.0 0.00 0.00 0.00 19 990.8
20210613210027 97 113 0.0 0.0 0.00 0.00 0.00 18 991.0
20210613204549 96 155 0.0 0.0 0.00 0.00 0.00 18 991.1
20210613203018 96 163 0.0 0.0 0.00 0.00 0.00 18 991.5
20210613201540 95 186 0.0 0.0 0.00 0.00 0.00 18 991.7
20210613200102 95 180 0.0 0.0 0.00 0.00 0.00 18 991.9
20210613194638 95 132 0.0 0.0 0.00 0.00 0.00 18 992.0
20210613193039 94 171 0.0 0.0 0.00 0.00 0.00 19 992.2
20210613191542 94 186 0.0 0.0 0.00 0.00 0.00 19 992.3
20210613190045 93 161 0.0 0.0 0.00 0.00 0.00 21 992.4
20210613184516 93 191 0.0 0.0 0.00 0.00 0.00 19 992.5
20210613183015 92 155 0.0 0.0 0.00 0.00 0.00 22 992.6
20210613181504 91 162 0.0 0.0 0.00 0.00 0.00 27 992.6